sat.trackr.live / text

‹ back to catalog

STARLINK-4060

NORAD 53267 · 2022-086AB

PAYLOAD ACTIVE UNKNOWN

§ Identity

Operator
Country
US
Launch date
2022-07-24
Launch site
AFETR
Launch vehicle
Mass (kg)
RCS (m²)

Purposes: comms

External: N2YO · Heavens-Above · Gunter

§ Orbital elements

Epoch: 2026-09-20T01:16:13.664352Z

Period
93.85 min
Inclination
53.1605°
Eccentricity
0.0001114
Mean motion
15.34408254 rev/d
Perigee alt
461.9 km
Apogee alt
463.4 km
Semi-major
6,840.8 km
B*
1.0140e-4
RAAN
27.4741°
Arg perigee
71.4728°
Mean anomaly
288.6396°
Rev number
23,060

§ Raw data

STARLINK-40601 53267U 22086AB  26263.05293593  .00003052  00000+0  10140-3 0  99942 53267  53.1605  27.4741 0001114  71.4728 288.6396 15.34408254230605

JSON: /api/v1/satellites/53267 · /tle

For live sub-satellite position, see the globe view (requires WebGL).

§ Visibility from observer

Set your observer location to see the next 7 days of passes ≥ 10°. The values pass through the URL so the page stays shareable.

No JS? Fill the form by hand. The geolocation button needs JavaScript.